Weather History for Georgetown, DE

Change the Weather History Date:

Tuesday, September 3, 2013

  Actual Average Record
Temperature  
Mean Temperature 77 °F 73 °F  
Max Temperature 86 °F 82 °F 98 °F (1953)
Min Temperature 68 °F 63 °F 45 °F (1967)
Degree Days  
Heating Degree Days 0 0  
Month to date heating degree days 0 0  
Since 1 July heating degree days 0 1  
Cooling Degree Days 12 8  
Month to date cooling degree days 45 24  
Year to date cooling degree days 1232 1053  
Growing Degree Days 28 (Base 50)    
Moisture  
Dew Point 67 °F    
Average Humidity 68    
Maximum Humidity 94    
Minimum Humidity 42    
Precipitation  
Precipitation 0.00 in 0.16 in 2.35 in (1972)
Month to date precipitation T 0.46  
Year to date precipitation 41.99 29.73  
Sea Level Pressure  
Sea Level Pressure 29.82 in    
Wind  
Wind Speed 4 mph (WNW)    
Max Wind Speed 10 mph    
Max Gust Speed 16 mph    
Visibility 8 miles    
Events      
T = Trace of Precipitation, MM = Missing Value Source: NWS Daily Summary

Daily Weather History Graph

Daily Weather History Graph

Search for Another Location

Airport:

Trip Planner

Search our weather history database for the weather conditions in past years. The results will help you decide how hot, cold, wet, or windy it might be!

Date:

Astronomy

Sep. 03, 2013 Rise Set
Actual Time 6:32 AM EDT 7:28 PM EDT
Civil Twilight 6:05 AM EDT 7:55 PM EDT
Nautical Twilight 5:33 AM EDT 8:27 PM EDT
Astronomical Twilight 4:59 AM EDT 9:00 PM EDT
Moon 4:44 AM EDT (9/3) 6:13 PM EDT (9/3)
Length of Visible Light 13h 49m
Length of Day
12h 55m
Waning Crescent, 3% of the Moon is Illuminated
Sep 3
Waning Crescent
Sep 5
New
Sep 12
First Quarter
Sep 19
Full
Sep 26
Last Quarter

Hourly Weather History & Observations

Time (EDT) Temp. Heat Index Dew Point Humidity Pressure Visibility Wind Dir Wind Speed Gust Speed Precip Events Conditions
12:54 AM 77.0 °F - 73.0 °F 88% 29.77 in 8.0 mi SW 8.1 mph - N/A   Clear
1:54 AM 75.9 °F - 73.0 °F 91% 29.75 in 7.0 mi SSW 6.9 mph - N/A   Clear
2:54 AM 75.0 °F - 72.0 °F 90% 29.74 in 7.0 mi Calm Calm - N/A   Clear
3:54 AM 73.0 °F - 70.0 °F 90% 29.75 in 6.0 mi Calm Calm - N/A   Clear
4:54 AM 73.0 °F - 70.0 °F 90% 29.76 in 5.0 mi Calm Calm - N/A   Clear
5:54 AM 73.0 °F - 71.1 °F 93% 29.76 in 5.0 mi SSW 3.5 mph - N/A   Clear
6:49 AM 73.4 °F - 71.6 °F 94% 29.77 in 2.5 mi Calm Calm - N/A   Clear
6:54 AM 73.0 °F - 71.1 °F 93% 29.78 in 3.0 mi Calm Calm - N/A   Clear
7:54 AM 75.9 °F - 73.0 °F 91% 29.79 in 4.0 mi SW 3.5 mph - N/A   Clear
8:54 AM 80.1 °F 84.2 °F 73.0 °F 79% 29.80 in 9.0 mi West 4.6 mph - N/A   Clear
9:54 AM 82.0 °F 87.4 °F 73.0 °F 74% 29.81 in 8.0 mi NNW 5.8 mph - N/A   Scattered Clouds
10:19 AM 82.4 °F 87.2 °F 71.6 °F 70% 29.82 in 9.0 mi NW 9.2 mph - N/A   Mostly Cloudy
10:41 AM 82.4 °F 86.3 °F 69.8 °F 66% 29.82 in 10.0 mi NNW 9.2 mph - N/A   Scattered Clouds
10:54 AM 82.9 °F 85.8 °F 68.0 °F 60% 29.82 in 10.0 mi NNW 8.1 mph - N/A   Partly Cloudy
11:54 AM 84.0 °F 87.0 °F 68.0 °F 58% 29.83 in 10.0 mi Variable 5.8 mph - N/A   Partly Cloudy
12:54 PM 86.0 °F 86.1 °F 61.0 °F 43% 29.83 in 10.0 mi NW 9.2 mph - N/A   Clear
1:54 PM 86.0 °F 86.8 °F 63.0 °F 46% 29.82 in 10.0 mi WNW 6.9 mph - N/A   Clear
2:54 PM 84.0 °F 83.8 °F 59.0 °F 43% 29.81 in 10.0 mi WNW 9.2 mph - N/A   Clear
3:54 PM 84.9 °F 84.8 °F 60.1 °F 43% 29.81 in 10.0 mi NNW 6.9 mph - N/A   Clear
4:54 PM 84.0 °F 84.4 °F 61.0 °F 46% 29.82 in 10.0 mi Variable 5.8 mph - N/A   Clear
5:54 PM 82.9 °F 83.2 °F 60.1 °F 46% 29.84 in 10.0 mi NW 4.6 mph - N/A   Clear
6:10 PM 82.4 °F 82.9 °F 60.8 °F 48% 29.84 in 10.0 mi NW 6.9 mph 76.0 mph N/A   Squalls
6:54 PM 81.0 °F 81.9 °F 62.1 °F 52% 29.84 in 10.0 mi NW 3.5 mph - N/A   Clear
7:54 PM 77.0 °F - 62.1 °F 60% 29.86 in 10.0 mi Calm Calm - N/A   Clear
8:54 PM 72.0 °F - 64.0 °F 76% 29.89 in 10.0 mi Calm Calm - N/A   Clear
9:54 PM 71.1 °F - 64.0 °F 78% 29.91 in 10.0 mi Calm Calm - N/A   Clear
10:54 PM 72.0 °F - 62.1 °F 71% 29.92 in 10.0 mi Calm Calm - N/A   Clear
11:54 PM 70.0 °F - 60.1 °F 71% 29.94 in 10.0 mi North 4.6 mph - N/A   Clear